[[{"header":{"parameterUnit":"m.s-1","parameterCategory":1,"la1":30.2991,"la2":30.254,"lo1":-89.0895,"lo2":-89.0444,"dx":0.0017,"dy":0.0017,"nx":28,"ny":28,"refTime":"2022-12-13T09:00:00:Z","depth":0,"parameterNumber":2,"parameterNumberName":"U-component_of_WINDS"},"data":[0,0,0,0,0,0,0,0,0,0,0,0,0,0,0,0,0,0,0,0,0,0,0,0,0,0,0,0,0,0,0,0,0,0,0,0,0,0,0,0,0,0,0,0,0,0,0,0,0,0,0,0,0,0,0,0,0,0,4.9413,4.9414,0,4.9457,4.9458,4.9458,4.9365,4.9362,4.9359,4.9356,4.9401,4.9405,4.9409,0,0,0,0,0,0,0,0,0,0,0,0,0,4.9251,4.9254,4.9413,4.9414,4.9415,4.9457,4.9458,4.9459,4.9365,4.9362,4.9358,4.9355,4.94,4.9404,4.9409,0,0,0,0,0,0,0,0,0,0,0,0,0,4.9311,4.9255,4.9413,4.9373,4.937,4.9457,4.9458,4.9459,4.9366,4.9362,4.9357,4.9353,4.9398,4.9404,4.941,4.9538,0,0,4.9428,4.9431,0,0,0,0,0,0,0,0,4.9307,4.9317,4.9379,4.9376,4.9373,4.9401,4.9417,4.9485,4.9367,4.9368,4.9356,4.9351,4.9405,4.941,4.9428,4.954,4.9542,4.9429,4.9433,4.9435,4.9437,0,0,0,0,0,0,0,4.9303,4.9314,4.9431,4.938,4.9376,4.9354,4.9357,4.943,4.9411,4.9367,4.9361,4.9367,4.9402,4.9423,4.9428,4.9543,4.9429,4.9434,4.9438,4.944,4.9765,4.977,0,0,0,0,0,0,4.9304,4.9312,4.9429,4.9432,4.9328,4.936,4.9364,4.9397,4.941,4.9408,4.9371,4.9363,4.9414,4.9422,4.943,4.9582,4.9435,4.9441,4.9444,4.976,4.9767,4.9772,0,0,0,0,0,0,4.9301,4.9316,4.9428,4.937,4.9383,4.9368,4.9405,4.94,4.942,4.9413,4.9409,4.9395,4.9411,4.9421,4.9513,4.9583,4.9443,4.9449,4.9755,4.9762,4.9769,4.9888,0,0,0,0,0,0,4.9297,4.9315,4.9363,4.9372,4.9386,4.9509,4.9409,4.9404,4.9431,4.942,4.9434,4.9432,4.9408,4.9504,4.9519,4.9588,4.9454,4.9748,4.9758,4.9767,4.9878,4.9899,4.9917,0,0,0,0,0,4.9291,4.9394,4.9366,4.9381,4.9446,4.9514,4.9522,4.9492,4.9437,4.9485,4.9481,4.9432,4.9573,4.9514,4.953,4.9603,4.9744,4.9755,4.9766,4.9869,4.9895,4.9916,0,0,0,0,0,0,4.9393,4.9394,4.9363,4.9472,4.9493,4.9498,4.9558,4.952,4.9557,4.9546,4.9507,4.9511,4.9611,4.9615,4.955,4.9729,4.9649,4.9664,4.9722,4.9746,4.9765,4.9762,4.9459,0,0,0,0,0,4.9428,4.9483,4.9481,4.9577,4.959,4.9573,4.9601,4.9576,4.9597,4.9606,4.9608,4.9631,4.968,4.9713,4.9758,4.9878,4.9881,4.9936,4.9956,4.9972,4.9985,5.0052,5.0077,4.9809,4.9809,4.9809,0,0,4.9501,4.9508,4.9545,4.9598,4.9612,4.967,4.9581,4.9645,4.9689,4.9615,4.9702,4.9706,4.9728,4.9835,4.9882,4.9842,5.006,4.9986,4.9999,5.0004,5.0066,5.0091,5.0114,4.9817,4.9815,4.9814,0,0,4.9664,4.9675,4.9757,4.9773,4.9796,4.9784,4.9804,4.9815,4.9815,4.9901,4.9848,4.99,4.9985,5.0004,5.0025,5.0199,5.0156,5.0215,5.0316,5.0381,5.0403,5.0421,5.0485,5.0508,5.0228,5.0229,5.0229,0,4.9751,4.9837,4.9804,4.9874,4.9899,4.9837,4.9921,4.9938,4.9974,4.9994,4.9949,5.0056,5.0067,5.0179,5.0222,5.024,5.0263,5.0213,5.0402,5.042,5.0437,5.0498,5.0521,5.0236,5.0235,5.0234,5.0233,0,4.9945,5.0005,5.0069,5.0107,5.014,5.0216,5.0196,5.0233,5.0207,5.02,5.0291,5.0302,5.0349,5.0374,5.0348,5.0483,5.0458,5.0408,5.0327,5.047,5.0527,5.0549,5.0246,5.0243,5.0241,5.0239,0,0,5.0171,5.0192,5.0216,5.0233,5.0255,5.0301,5.0376,5.0423,5.0457,5.0485,5.0547,5.0623,5.0578,5.0602,5.0578,5.0635,5.0775,5.0578,5.0578,5.0616,5.0927,5.0965,5.0992,5.0747,5.0751,5.0754,5.0925,0,5.0333,5.0462,5.0436,5.0562,5.0618,5.0561,5.0627,5.0648,5.0645,5.0693,5.0689,5.0744,5.0679,5.0694,5.0748,5.0746,5.0837,5.0733,5.0806,5.0808,5.0802,5.1021,5.106,5.1221,5.0947,5.0951,5.0953,0,5.0539,5.0577,5.0709,5.0724,5.0747,5.0806,5.0848,5.0895,5.0919,5.0913,5.0941,5.0907,5.0983,5.0902,5.1007,5.0937,5.0965,5.0969,5.0975,5.0981,5.089,5.1034,5.1272,5.1297,5.0987,5.0984,5.0982,0,5.0693,5.0776,5.0867,5.0883,5.0903,5.0946,5.0957,5.0976,5.1007,5.1044,5.1064,5.111,5.1135,5.1172,5.1152,5.1094,5.1261,5.1177,5.1259,5.126,5.1296,5.1295,5.1544,5.1314,5.1314,5.1313,5.1313,0,5.0878,5.0961,5.0936,5.0992,5.1085,5.1055,5.1147,5.1151,5.1169,5.1226,5.1179,5.1233,5.1203,5.1255,5.124,5.1331,5.1342,5.134,5.1335,5.1345,5.1345,5.1363,5.1351,5.1319,5.1318,5.1317,5.1316,0,5.1065,5.1051,5.1147,5.1158,5.1163,5.1231,5.1242,5.1294,5.1289,5.1361,5.1376,5.1367,5.1426,5.141,5.1474,5.1464,5.1579,5.156,5.1571,5.1567,5.165,5.1643,5.192,5.1955,5.1702,5.1704,5.1706,0,5.1184,5.1247,5.1266,5.1301,5.1315,5.1371,5.1403,5.1377,5.1412,5.1445,5.1495,5.155,5.1593,5.1691,5.1691,5.174,5.1722,5.1816,5.1729,5.1738,5.1725,5.1722,5.1729,5.1833,5.1836,5.1838,5.184,0,5.1397,5.1388,5.1435,5.1482,5.1521,5.1556,5.1587,5.1618,5.1594,5.1636,5.1697,5.1731,5.1797,5.1854,5.19,5.1911,5.1873,5.1868,5.1889,5.19,5.1905,5.1905,5.1619,5.1861,5.1859,5.1858,5.1856,5.1856,5.1554,5.1609,5.1632,5.1687,5.1708,5.1738,5.1789,5.1791,5.184,5.1893,5.1874,5.1945,5.1969,5.2027,5.2045,5.21,5.2064,5.2095,5.2104,5.2112,5.2123,5.1896,5.2108,5.2107,5.2107,5.2106,5.2106,0,5.1766,5.1779,5.183,5.1875,5.1919,5.188,5.1913,5.1952,5.2015,5.2041,5.2085,5.2156,5.2211,5.2216,5.2268,5.2312,5.2296,5.2327,5.2323,5.2327,5.2151,5.2128,5.2339,5.2339,5.2339,5.2339,5.2339,5.2339,5.1882,5.1972,5.1967,5.2068,5.208,5.2148,5.2171,5.2199,5.2221,5.2302,5.2348,5.2351,5.237,5.2423,5.2473,5.2473,5.2495,5.2533,5.2527,5.2362,5.2339,5.2317,5.2295,5.2538,5.2538,5.2698,5.27,5.2701]},{"header":{"parameterUnit":"m.s-1","parameterCategory":1,"la1":30.2991,"la2":30.254,"lo1":-89.0895,"lo2":-89.0444,"dx":0.0017,"dy":0.0017,"nx":28,"ny":28,"refTime":"2022-12-13T09:00:00:Z","depth":0,"parameterNumber":3,"parameterNumberName":"V-component_of_WINDS"},"data":[0,0,0,0,0,0,0,0,0,0,0,0,0,0,0,0,0,0,0,0,0,0,0,0,0,0,0,0,0,0,0,0,0,0,0,0,0,0,0,0,0,0,0,0,0,0,0,0,0,0,0,0,0,0,0,0,0,0,-4.9705,-4.9708,0,-4.9974,-4.9977,-4.998,-5.004,-5.0039,-5.0037,-5.0035,-5.0311,-5.032,-5.0329,0,0,0,0,0,0,0,0,0,0,0,0,0,-4.9246,-4.9254,-4.9704,-4.9708,-4.9711,-4.9973,-4.9977,-4.998,-5.0041,-5.0038,-5.0036,-5.0034,-5.0308,-5.0319,-5.033,0,0,0,0,0,0,0,0,0,0,0,0,0,-4.9473,-4.9257,-4.9704,-4.9773,-4.9782,-4.9972,-4.9977,-4.9981,-5.0041,-5.0038,-5.0036,-5.0033,-5.0304,-5.0318,-5.0331,-5.0473,0,0,-5.0373,-5.0379,0,0,0,0,0,0,0,0,-4.946,-4.949,-4.9759,-4.9768,-4.9779,-4.9971,-4.9916,-5.0146,-5.0042,-4.9943,-5.0035,-5.0032,-5.02,-5.0222,-5.0279,-5.0485,-5.0497,-5.0374,-5.0383,-5.0388,-5.0392,0,0,0,0,0,0,0,-4.9444,-4.9478,-4.9811,-4.9763,-4.9775,-4.9791,-4.982,-4.996,-5.0084,-4.9951,-4.9956,-4.9987,-5.0205,-5.0266,-5.0286,-5.0501,-5.0374,-5.0386,-5.0394,-5.04,-5.084,-5.0843,0,0,0,0,0,0,-4.9416,-4.9465,-4.9802,-4.9819,-4.9609,-4.9802,-4.9834,-4.9912,-5.0083,-5.0106,-4.9989,-4.9989,-5.0244,-5.027,-5.0296,-5.0474,-5.0388,-5.0401,-5.0409,-5.0836,-5.084,-5.0844,0,0,0,0,0,0,-4.9406,-4.9446,-4.9792,-4.9644,-4.9689,-4.9813,-4.9899,-4.9919,-4.9979,-5.0112,-5.0134,-5.0028,-5.0242,-5.0277,-5.0429,-5.0484,-5.0407,-5.042,-5.0832,-5.0837,-5.0842,-5.0829,0,0,0,0,0,0,-4.9392,-4.9442,-4.9496,-4.9644,-4.9696,-4.9919,-4.9903,-4.9926,-5.0003,-5.0005,-5.0154,-5.0176,-5.0243,-5.0408,-5.0442,-5.0501,-5.043,-5.0828,-5.0834,-5.0841,-5.0825,-5.0833,-5.084,0,0,0,0,0,-4.9376,-4.9481,-4.9498,-4.9539,-4.9767,-4.9922,-4.9952,-5.0026,-5.0007,-5.0063,-5.0148,-5.0172,-5.0472,-5.0423,-5.0462,-5.0526,-5.0824,-5.0833,-5.084,-5.0822,-5.0832,-5.084,0,0,0,0,0,0,-4.9336,-4.9502,-4.9522,-4.9679,-4.9786,-4.9932,-5.0005,-5.0034,-5.0149,-5.0146,-5.0234,-5.0267,-5.0414,-5.0486,-5.0427,-5.0673,-5.0648,-5.0664,-5.0621,-5.0631,-5.0639,-5.0618,-5.0442,0,0,0,0,0,-4.9345,-4.9457,-4.9596,-4.9721,-4.9773,-4.988,-4.995,-4.9998,-5.0113,-5.0159,-5.0255,-5.0366,-5.0486,-5.0562,-5.068,-5.0836,-5.087,-5.09,-5.0907,-5.0913,-5.0926,-5.1015,-5.1031,-5.087,-5.087,-5.087,0,0,-4.9366,-4.947,-4.9535,-4.9715,-4.9804,-4.9919,-4.9917,-5.0038,-5.0125,-5.0177,-5.0327,-5.0401,-5.0531,-5.0686,-5.0759,-5.075,-5.0978,-5.0923,-5.0926,-5.0936,-5.1025,-5.104,-5.1053,-5.0875,-5.0874,-5.0873,0,0,-4.9461,-4.9551,-4.9666,-4.9755,-4.9889,-4.996,-4.9987,-5.013,-5.0181,-5.0333,-5.0375,-5.0479,-5.0683,-5.0774,-5.0847,-5.098,-5.1006,-5.1016,-5.1055,-5.1141,-5.1154,-5.1165,-5.1214,-5.123,-5.1028,-5.1028,-5.1028,0,-4.947,-4.9644,-4.9721,-4.9841,-4.9919,-4.9972,-5.0089,-5.0172,-5.0338,-5.0391,-5.0379,-5.0638,-5.0728,-5.0906,-5.0939,-5.0996,-5.1031,-5.0999,-5.1146,-5.1158,-5.117,-5.1217,-5.1235,-5.1028,-5.1028,-5.1028,-5.1028,0,-4.9648,-4.9768,-4.9844,-5.0003,-5.0091,-5.0208,-5.0304,-5.0384,-5.0425,-5.0497,-5.0651,-5.0762,-5.0904,-5.095,-5.0991,-5.1135,-5.1125,-5.1128,-5.1105,-5.1185,-5.123,-5.1249,-5.1029,-5.1029,-5.1029,-5.1029,0,0,-4.9725,-4.9926,-4.9953,-5.0026,-5.0179,-5.0274,-5.0395,-5.0534,-5.06,-5.0714,-5.0818,-5.099,-5.0995,-5.1078,-5.113,-5.1205,-5.1305,-5.12,-5.1204,-5.1216,-5.1471,-5.1468,-5.1487,-5.1323,-5.1327,-5.133,-5.1461,0,-4.984,-5.0057,-5.0131,-5.0311,-5.0423,-5.0476,-5.0582,-5.0688,-5.0759,-5.0865,-5.0944,-5.1065,-5.1062,-5.1112,-5.119,-5.1276,-5.1357,-5.1268,-5.1422,-5.1426,-5.1387,-5.1511,-5.1508,-5.1626,-5.1479,-5.1482,-5.1484,0,-5.0003,-5.0118,-5.0309,-5.045,-5.05,-5.0593,-5.0727,-5.0828,-5.095,-5.0996,-5.109,-5.1137,-5.1266,-5.1235,-5.1416,-5.1353,-5.1421,-5.1473,-5.148,-5.1497,-5.146,-5.1532,-5.1665,-5.1682,-5.1513,-5.151,-5.1508,0,-5.004,-5.0244,-5.0385,-5.0446,-5.0613,-5.0678,-5.0751,-5.087,-5.0949,-5.1066,-5.1119,-5.1249,-5.1321,-5.1422,-5.1503,-5.1473,-5.1677,-5.1653,-5.172,-5.1718,-5.176,-5.1756,-5.1906,-5.1803,-5.1803,-5.1803,-5.1802,0,-5.0161,-5.0276,-5.0404,-5.0491,-5.0622,-5.0707,-5.0834,-5.091,-5.1016,-5.112,-5.1174,-5.127,-5.1371,-5.1481,-5.1546,-5.1686,-5.1718,-5.176,-5.1776,-5.1755,-5.175,-5.1801,-5.1795,-5.1808,-5.1806,-5.1806,-5.1805,0,-5.0225,-5.0315,-5.0473,-5.0618,-5.0658,-5.0748,-5.0873,-5.096,-5.1034,-5.1164,-5.12,-5.1316,-5.1448,-5.154,-5.1709,-5.1753,-5.1905,-5.1919,-5.1863,-5.1871,-5.1934,-5.1927,-5.2121,-5.2152,-5.2028,-5.2029,-5.203,0,-5.0296,-5.0386,-5.0541,-5.0614,-5.0687,-5.0804,-5.0885,-5.0972,-5.1055,-5.1201,-5.1271,-5.1407,-5.152,-5.1729,-5.1829,-5.1959,-5.1978,-5.2037,-5.1998,-5.1975,-5.198,-5.1973,-5.1983,-5.2043,-5.2044,-5.2045,-5.2045,0,-5.0412,-5.0453,-5.0568,-5.0699,-5.0794,-5.0902,-5.101,-5.1067,-5.1173,-5.1263,-5.1399,-5.1487,-5.1661,-5.1795,-5.1936,-5.2012,-5.2047,-5.2057,-5.208,-5.206,-5.2024,-5.2045,-5.188,-5.2052,-5.2051,-5.2051,-5.205,-5.205,-5.0483,-5.0566,-5.0688,-5.0815,-5.0905,-5.1005,-5.1095,-5.118,-5.1294,-5.1442,-5.1487,-5.1629,-5.1751,-5.1943,-5.2021,-5.2134,-5.2129,-5.2162,-5.217,-5.2177,-5.2177,-5.2006,-5.2159,-5.2159,-5.2159,-5.2159,-5.2159,0,-5.0603,-5.0684,-5.08,-5.095,-5.1049,-5.1074,-5.1195,-5.1277,-5.1401,-5.1511,-5.1622,-5.1779,-5.191,-5.2021,-5.2157,-5.2226,-5.2246,-5.2259,-5.2255,-5.2272,-5.2173,-5.214,-5.2241,-5.2241,-5.2241,-5.2241,-5.2241,-5.2241,-5.0677,-5.0818,-5.0874,-5.1062,-5.1144,-5.1282,-5.135,-5.1443,-5.1531,-5.1704,-5.1813,-5.1885,-5.1996,-5.2141,-5.2263,-5.2293,-5.234,-5.235,-5.2383,-5.2288,-5.2279,-5.227,-5.2239,-5.236,-5.236,-5.2473,-5.2474,-5.2475]}]]